Vertical_Velocity
-1 0 0 0 1 -0 -2 -0 -3 -2 -1 -2 -1 -2 -0 1 1 -0 1 2 2 0 0 -1 -2 3 -0 2 6 4 -0 2 4 0 -2 -2 -1 -3 -3 2 2 4 4 1
-2 -1 0 -0 -0 -0 -0 1 -1 -0 -0 -2 1 2 1 -0 -1 -1 -1 -2 1 1 3 4 4 3 4 4 -0 2 2 -1 -1 1 2 1 1 1 -1 -3 -5 -5 -2 -1
-3 0 -2 -7 -0 0 -0 0 -5 -2 -9 -0 1 0 -1 -0 1 0 2 2 2 2 0 1 2 -0 -1 2 -2 3 2 -0 -2 -0 -1 2 1 -1 3 1 1 -0 1 4
-2 -3 -6 -15 -0 0 1 -1 -0 0 0 -3 -3 -2 1 1 1 0 -0 -1 -0 -0 -2 -2 -0 -4 -2 -1 -0 -7 -6 3 2 2 0 -1 1 -1 -0 -3 -3 -3 -5 -4
-3 -1 -10 1 -1 -3 -5 -8 -2 -1 0 1 2 2 -1 -0 0 -1 -2 -1 -0 -3 0 -1 -2 -2 -1 1 8 -0 -5 -8 -10 -9 -10 -4 -2 -8 -4 -5 -5 -0 -1 -3
-1 -2 -2 -8 -1 -1 -2 -9 -2 -3 -1 -2 1 0 -6 -4 -2 -0 2 -2 0 -0 -5 -4 -1 -2 -1 -4 -6 0 0 -2 1 5 6 1 -2 1 -5 1 -2 -4 -1 -8
-0 -1 -10 -3 -1 2 -10 -22 -1 -1 -3 -2 -3 -8 -1 -0 0 5 2 2 4 1 2 6 -0 2 3 -0 -0 -3 4 -0 3 -6 -5 -2 0 -3 -2 -1 -1 -3 -0 -1
-1 1 -9 -1 -2 -6 -10 0 0 -1 -3 -4 1 -0 -2 1 1 -0 2 1 -0 -1 1 0 -1 -1 1 2 -0 -1 -4 3 3 2 -1 -3 -5 -3 -1 0 -1 -2 -5 -5
-10 -13 -3 -3 -1 1 -0 -1 -1 -0 -2 -0 1 -3 0 -0 -1 -2 -3 -1 -3 -2 -2 -2 -0 0 1 -2 -1 3 1 -2 0 3 1 1 2 2 0 -0 -1 0 -3 -5
-1 -6 -3 -3 -2 -1 -0 -2 2 -1 -0 1 -4 -0 -1 -2 -3 -4 -4 -2 -1 0 2 2 1 2 0 -2 -3 1 9 6 5 3 -1 -1 -1 -7 -8 -9 -5 -0 -1 -3
-5 -5 -1 -7 -4 -3 -1 2 1 -1 -1 -3 2 -3 -1 -1 -1 1 1 1 2 2 2 1 -1 2 3 6 4 -3 -8 -8 -8 -7 -7 -11 -9 -5 -0 5 2 -0 0 -1
-11 -7 -1 -7 0 -1 -1 -5 -2 2 -1 -1 1 3 2 -0 2 0 -1 0 -0 -1 1 1 0 -0 -3 -6 -8 -6 -5 -6 -5 -4 -5 -0 -0 -5 13 2 3 3 3 2
-9 -2 -3 -4 -3 -2 -2 -2 -0 -2 -1 0 -1 -1 1 1 1 2 1 -0 1 1 -2 -2 -6 -5 -4 -3 -4 -5 -5 -3 -1 -0 4 -0 1 2 -15 3 3 -1 1 -0
3 10 -2 -4 -17 -4 -0 -2 2 2 2 0 4 3 0 -1 1 -1 -2 1 -4 -4 -4 -5 -4 -2 -3 -7 -5 -2 0 3 3 2 -0 -0 -0 -1 -1 -3 -15 -10 5 -1
-3 3 -4 9 5 -4 -0 1 -1 -3 -1 -2 -1 -2 -1 -2 -3 -2 -0 -2 -2 -3 -1 -3 -4 -2 1 2 2 3 1 0 -1 -1 -0 -1 -3 -2 -2 -2 -3 -4 -6 1
-1 3 2 -1 -4 5 4 2 -1 -3 -0 0 -1 -1 -1 2 2 -1 -2 -2 -4 -2 2 1 1 3 -0 -1 -1 -1 -1 -1 -1 -2 -1 -1 1 -1 -2 -0 -0 -0 -2 -2
-1 -9 -0 -3 0 -4 -6 2 2 -3 1 -2 -4 3 1 0 1 -1 -0 0 0 0 1 -1 1 -1 -2 -2 -2 -1 -2 0 0 -1 -1 -0 -1 -1 -1 -0 -1 -0 -3 -1
-0 3 2 1 2 -0 -2 -4 3 6 -2 3 6 3 1 -2 -4 2 1 0 -1 -1 0 -0 -2 -1 -1 -1 -1 -1 -1 -0 0 -0 1 -1 1 -2 -2 -1 1 -0 -3 -2
3 -2 -1 4 -1 4 -3 1 -1 -1 4 5 4 -4 -3 1 0 -0 0 -1 -1 -1 -1 -4 -2 -1 -1 -0 -1 -1 -1 -0 -2 -1 -1 1 -1 -1 -1 -0 -0 -1 -2 -2
-1 2 -1 -5 6 -2 3 -1 -4 -0 4 3 3 2 1 1 1 -0 -1 -3 -0 -0 -2 -1 -2 -2 -2 -3 -2 -2 -1 -3 -4 -1 -1 -1 1 -0 0 0 1 -1 -2 -1
-1 -2 2 -5 2 0 0 3 6 -2 -5 -2 1 -1 0 5 2 -0 -2 -2 -2 -3 -2 -0 0 -0 -2 -2 -1 0 1 0 -1 -0 -0 -1 -1 -1 -2 -1 0 -0 -1 0
-2 -2 -2 -0 -6 -2 5 1 2 3 5 4 -1 2 0 -0 1 2 1 1 -1 -0 0 1 0 -2 -2 -1 -1 -1 -1 -1 -1 -1 -1 -0 -1 -0 -1 0 0 0 0 -0
-3 -3 -1 1 1 -4 -1 -2 0 2 3 4 4 -1 -3 1 1 0 -1 3 2 0 -1 -0 -0 -1 -0 -2 -1 1 0 0 0 0 0 -0 -0 0 -1 -0 -0 1 1 -1
-4 -3 -2 -3 -1 2 -4 2 3 2 5 5 5 7 4 -2 -3 -3 -2 -1 -3 -1 2 1 0 -1 1 -1 0 1 1 1 1 0 2 1 -0 1 3 -0 -1 1 2 -0
-4 -2 -3 1 -3 0 1 -1 2 0 1 0 1 -1 -1 -0 -0 -1 -0 1 -1 -3 -0 2 1 1 2 -0 -1 -0 -0 0 1 -0 1 1 0 -2 -0 0 -0 -1 0 -1
-3 -2 -2 1 1 -1 2 -1 -2 -1 -2 1 2 1 0 2 2 1 -0 -1 -1 -2 -3 -1 2 2 2 1 0 0 -0 1 1 3 1 1 -0 -1 -0 3 -1 0 -1 -1
-2 -0 2 -1 2 -1 -1 -1 -2 -0 1 -1 0 1 2 1 2 2 -1 -3 -1 -3 -4 -2 1 1 1 2 1 1 1 1 2 0 -1 -1 -0 0 -1 0 -1 0 -2 -0
Height
1479 1477 1476 1473 1472 1465 1470 1467 1466 1474 1475 1475 1476 1474 1473 1472 1471 1470 1469 1469 1469 1468 1467 1466 1466 1466 1467 1467 1467 1467 1468 1468 1467 1468 1468 1468 1468 1468 1470 1470 1469 1468 1465 1463
1479 1478 1478 1472 1471 1468 1467 1469 1472 1476 1471 1469 1471 1473 1474 1475 1475 1474 1473 1472 1471 1471 1471 1470 1470 1470 1471 1471 1470 1471 1470 1470 1470 1470 1470 1470 1470 1469 1468 1466 1466 1464 1462 1460
1496 1485 1478 1479 1469 1470 1467 1466 1470 1474 1467 1468 1471 1471 1471 1473 1473 1473 1473 1473 1472 1471 1472 1473 1472 1473 1472 1472 1472 1472 1471 1470 1470 1469 1469 1468 1467 1466 1465 1463 1461 1459 1458 1456
1501 1490 1498 1472 1469 1468 1468 1466 1465 1465 1465 1465 1467 1468 1470 1471 1471 1472 1473 1474 1475 1475 1475 1475 1474 1474 1473 1473 1472 1471 1471 1469 1468 1467 1466 1465 1465 1463 1461 1460 1458 1455 1453 1451
1496 1502 1480 1467 1468 1468 1468 1467 1462 1463 1464 1465 1467 1470 1469 1469 1469 1470 1471 1472 1474 1475 1475 1475 1475 1474 1474 1473 1471 1470 1469 1468 1467 1465 1464 1463 1459 1458 1457 1455 1454 1453 1448 1448
1499 1495 1479 1463 1459 1461 1462 1471 1451 1456 1462 1464 1469 1476 1468 1467 1469 1471 1472 1474 1475 1474 1475 1475 1474 1473 1473 1471 1471 1469 1467 1465 1464 1462 1460 1458 1457 1454 1453 1451 1448 1444 1442 1441
1495 1502 1476 1460 1459 1459 1470 1464 1450 1450 1454 1460 1464 1461 1463 1465 1468 1470 1471 1473 1474 1474 1475 1473 1472 1471 1470 1468 1466 1465 1463 1463 1462 1460 1458 1456 1453 1450 1448 1445 1442 1439 1437 1436
1496 1494 1487 1460 1462 1464 1456 1449 1449 1451 1453 1455 1457 1460 1462 1464 1466 1469 1471 1472 1472 1472 1472 1471 1470 1470 1467 1466 1464 1463 1462 1461 1459 1457 1456 1454 1452 1449 1447 1444 1441 1437 1434 1431
1486 1474 1459 1458 1455 1453 1452 1451 1451 1452 1453 1455 1457 1458 1460 1461 1464 1466 1468 1469 1469 1470 1469 1469 1467 1467 1465 1463 1463 1461 1460 1458 1457 1456 1454 1453 1450 1448 1444 1441 1438 1434 1431 1426
1473 1457 1453 1451 1451 1450 1450 1449 1450 1450 1451 1453 1454 1456 1458 1460 1462 1463 1465 1466 1467 1467 1467 1467 1466 1465 1464 1463 1461 1460 1459 1458 1457 1455 1453 1451 1449 1446 1443 1439 1435 1430 1426 1421
1462 1448 1446 1442 1443 1442 1444 1445 1446 1447 1448 1449 1451 1452 1454 1456 1458 1459 1461 1462 1463 1464 1464 1464 1464 1462 1462 1461 1460 1458 1457 1456 1454 1453 1451 1449 1447 1444 1439 1436 1431 1426 1421 1417
1447 1437 1438 1436 1436 1436 1437 1438 1441 1442 1444 1445 1447 1449 1451 1453 1456 1458 1459 1460 1461 1461 1461 1460 1460 1460 1459 1458 1457 1456 1454 1453 1451 1449 1447 1444 1441 1437 1435 1430 1427 1423 1419 1414
1430 1430 1431 1432 1433 1432 1432 1432 1435 1437 1439 1441 1443 1445 1447 1450 1451 1453 1455 1456 1456 1457 1457 1456 1456 1456 1455 1454 1453 1452 1450 1448 1446 1444 1441 1438 1435 1430 1426 1425 1421 1419 1416 1412
1429 1429 1425 1424 1421 1424 1425 1427 1428 1431 1434 1436 1439 1441 1443 1445 1447 1449 1450 1451 1452 1452 1452 1452 1452 1452 1451 1450 1448 1447 1445 1443 1440 1438 1435 1433 1430 1427 1424 1420 1416 1413 1412 1409
1424 1424 1422 1420 1418 1416 1417 1418 1420 1421 1425 1428 1431 1434 1437 1439 1441 1443 1445 1446 1446 1447 1447 1447 1447 1447 1446 1444 1443 1442 1440 1438 1436 1434 1432 1429 1426 1423 1421 1418 1414 1409 1406 1404
1421 1418 1414 1412 1411 1412 1410 1409 1410 1413 1418 1422 1424 1427 1429 1432 1435 1437 1438 1439 1440 1441 1442 1442 1441 1441 1440 1439 1437 1435 1434 1432 1431 1429 1427 1425 1423 1420 1417 1413 1409 1405 1401 1398
1414 1407 1406 1403 1403 1404 1405 1405 1405 1406 1409 1413 1416 1421 1424 1426 1429 1430 1432 1433 1435 1436 1437 1436 1436 1435 1434 1433 1431 1430 1428 1427 1426 1424 1422 1420 1418 1415 1411 1408 1404 1400 1397 1394
1405 1400 1398 1397 1395 1394 1396 1399 1402 1402 1403 1405 1409 1413 1417 1419 1421 1425 1428 1429 1430 1431 1431 1431 1430 1430 1429 1428 1426 1425 1423 1422 1420 1419 1417 1414 1413 1410 1407 1404 1400 1396 1392 1389
1398 1392 1389 1385 1384 1386 1388 1390 1393 1397 1400 1401 1403 1404 1407 1412 1417 1420 1422 1424 1425 1425 1426 1425 1425 1424 1423 1422 1420 1418 1417 1415 1413 1412 1410 1409 1407 1405 1402 1399 1396 1391 1388 1384
1393 1389 1383 1380 1378 1378 1383 1382 1387 1391 1394 1396 1398 1401 1403 1406 1409 1412 1414 1416 1418 1418 1417 1418 1417 1417 1416 1415 1413 1411 1408 1407 1405 1405 1404 1402 1400 1398 1396 1394 1391 1386 1383 1380
1390 1386 1382 1378 1378 1378 1379 1381 1380 1378 1384 1390 1393 1395 1398 1402 1404 1405 1408 1408 1411 1411 1411 1411 1410 1410 1408 1407 1405 1403 1401 1400 1398 1397 1396 1395 1393 1392 1390 1389 1386 1382 1378 1375
1387 1385 1382 1380 1378 1378 1378 1377 1377 1378 1379 1379 1384 1391 1395 1398 1400 1401 1403 1403 1404 1405 1405 1405 1404 1403 1402 1401 1398 1396 1394 1392 1391 1389 1388 1387 1386 1385 1384 1383 1380 1377 1374 1371
1387 1384 1381 1379 1376 1374 1373 1375 1375 1377 1379 1381 1381 1382 1388 1393 1396 1397 1398 1399 1399 1399 1399 1399 1398 1396 1394 1393 1391 1389 1387 1385 1383 1382 1380 1379 1379 1378 1378 1376 1374 1372 1370 1366
1386 1383 1380 1378 1377 1374 1373 1374 1374 1375 1379 1381 1383 1384 1384 1386 1390 1392 1394 1394 1396 1396 1395 1394 1391 1389 1386 1384 1383 1382 1379 1378 1376 1375 1374 1372 1372 1372 1371 1370 1368 1367 1365 1362
1383 1380 1378 1375 1374 1374 1373 1374 1374 1376 1377 1379 1381 1382 1384 1384 1385 1386 1389 1389 1390 1390 1390 1388 1385 1382 1379 1378 1376 1375 1373 1372 1370 1369 1368 1366 1365 1365 1365 1364 1362 1361 1359 1358
1378 1376 1373 1371 1369 1369 1370 1370 1373 1374 1375 1378 1378 1379 1380 1381 1381 1381 1383 1383 1383 1383 1383 1382 1380 1378 1375 1372 1370 1368 1367 1366 1364 1363 1362 1360 1359 1358 1358 1358 1357 1356 1354 1353
1371 1369 1367 1365 1364 1363 1364 1366 1367 1369 1370 1372 1375 1375 1376 1377 1377 1376 1376 1377 1376 1376 1376 1376 1375 1373 1371 1368 1365 1363 1361 1360 1358 1356 1355 1354 1353 1353 1352 1352 1351 1350 1349 1348